Погода в Елабуге

Погода в Елабуге : погода сейчас, прогноз погоды и архив. Всё, что Вы хотите узнать о погоде в Елабуге!

Поиск расширенной информации на нашем сайте:

Другие новости

Новости СМИ2

Главная страница сайта

Новости сайта

03.07.2017

Напоминаем, что на нашем специализированном сайте Метеоцентр.Азия вы можете получить высокодетализированные автоматические прогнозы погоды по пунктам России, СНГ и мира в авиационном формате (включающие направление и скорость ветра, видимость, явления погоды, количество и форму облачности, нижнюю и верхнюю границу облачности).

Рекомендуем: http://teplo-dim.com/ купити електрокамін у львові - каміни електричні електрокаміни.

Погода в Елабуге - сегодня

Время (UTC), дата Ветер
(°,м/с) 
Видим.   Явления Облачность Т
(°С)
Тd
(°С)
f(%) Тe
(°С)
Pmin
(гПа)
dP
(гПа)
Po
(мм)
O2
(г/м3)
Тmin Tmax R s Состояние
почвы
12 09.12.17 160 (Ю) 20000 м    ясно 
-23.1 -26.3 75 -26  1018.8  0.9  758  335           
15 09.12.17 160 (Ю) 20000 м    ясно 
-24 -26.9 77 -27  1019.1  0.2  758  337           
18 09.12.17 140 (ЮВ) н/о    н/о 
-24.3 -26.9 79 -27  1019.8  0.7  758  337           
21 09.12.17 150 (ЮВ) 20000 м    4/0 верхняя 
[Ci fib]
-24.1 -27.1 76 -25  1019.3  -0.5  758  337  -24.8      равномерный
сухой снег
100% 
00 10.12.17 тихо ()   20000 м    3/0 верхняя 
[Ci fib]
-24.6 -27.7 75 -25  1020.1  0.7  759  338  -26.5         
03 10.12.17 030 (СВ) 20000 м    10/0 верхняя 
[Ci fib]
-19 -23.1 70 -23  1018.5  -1.4  758  330           
06 10.12.17 020 (С) 20000 м    10/0 верхняя 
[Ci fib]
-17.4 -22.3 66 -21  1017.4  -1  757  327           
09 10.12.17 020 (С) 20000 м    10/0 верхняя 
[Ci fib]
-20 -23.4 74 -24  1017.2  -0.3  757  331    -16.9       
12 10.12.17 030 (СВ) 20000 м    10/0 верхняя 
[Ci sp]
-20.7 -24.3 73 -25  1016.7  -0.5  756  331           
15 10.12.17 020 (С) 20000 м    10/0 верхняя 
[Ci sp]
-19.6 -23.4 72 -22  1015.1  -1.6  755  329           
18 10.12.17 020 (С) 20000 м    9/0 средняя 
[Ac trans]
-18.2 -22.3 70 -23  1013.7  -1.4  754  327           
21 10.12.17 030 (СВ) 5{12}  20000 м    10/10 700 м кучево-дожд. 
[Cb cap]
-16.6 -20.5 72 -22  1012.4  -1.2  753  325  -20.9      равномерный
сухой снег
100% 
00 11.12.17 030 (СВ) 4{12}  20000 м  в посл. час ливневой снег  10/10 600 м кучево-дожд. 
[Cb cap]
-14.9 -18.6 73 -20  1011.7  -0.7  753  322           
03 11.12.17 030 (СВ) 5-11{14}  20000 м    10/10 570 м кучево-дожд. 
[Cb cap]
-13.5 -17.8 70 -19  1009.7  -1.9  751  320           
06 11.12.17 030 (СВ) 8-15{17}  0200 м  ливневой снег  10/10 540 м кучево-дожд. 
[Cb cap]
-13.8 -16 83 -21  1007.8  -2  750  320           
09 11.12.17 030 (СВ) 8-18{18}  0500 м  ливневой снег  10/10 540 м кучево-дожд. 
[Cb cap]
-14.4 -16.6 83 -22  1007.1  -0.6  749  320    -13.4     
12 11.12.17 030 (СВ) 6-11{18}  0500 м  слаб. ливневой снег  10/10 540 м кучево-дожд. 
[Cb cap]
-14.1 -16.3 83 -20  1006.6  -0.5  749  320           
15 11.12.17 020 (С) 6-11{15}  4000 м  слаб. ливневой снег  10/10 600 м кучево-дожд. 
[Cb cap]
-14.1 -16.3 83 -20  1005.9  -0.8  748  319           
18 11.12.17 020 (С) 6-11{14}  20000 м  позёмок{ливн. осадки}  10/4 600 м кучево-дожд., средняя, верхняя 
[Cb cap|Ac trans|Cs]
-14.4 -16.7 83 -21  1005.4  -0.4  748  320           
21 11.12.17 020 (С) 6-11{14}  10 км  слаб. снег  10/0 средняя, верхняя 
[Ac trans|Cs]
-14.9 -17.3 82 -21  1006.2  0.8  749  320  -14.9    10  равномерный
сухой снег
100% 
00 12.12.17 020 (С) 6-13{13}  20000 м  {снег}  9/3 600 м кучево-дожд., средняя, верхняя 
[Cb cap|Ac trans|Ci fib]
-14.6 -17.5 79 -21  1007.3  1.1  749  320  -14.9         
03 12.12.17 020 (С) 6-11{13}  10 км  слаб. снег  10/3 600 м кучево-дожд., средняя, верхняя 
[Cb cap|Ac trans|Cs]
-12.8 -15.7 79 -19  1008.4  1.1  750  319           
06 12.12.17 030 (СВ) 2{11}  10 км  слаб. ливневой снег  10/6 600 м кучево-дожд., верхняя 
[Cb cap|Cs]
-12.6 -15.3 80 -15  1010.3  1.8  752  319           
09 12.12.17 тихо ()   4000 м  слаб. ливневой снег  10/10 660 м кучево-дожд. 
[Cb cap]
-13 -15.7 80 -13  1012.6  2.3  753  320    -12.1  0.4     
12 12.12.17 170 (Ю) 4000 м  слаб. ливневой снег  10/10 630 м кучево-дожд. 
[Cb cap]
-13.2 -15.8 81 -15  1013.8  1.2  754  321           
Время (UTC), дата Ветер
(°,м/с) 
Видим.   Явления Облачность Т
(°С)
Тd
(°С)
f(%) Тe
(°С)
Pmin
(гПа)
dP
(гПа)
Po
(мм)
O2
(г/м3)
Тmin Tmax R s Состояние
почвы

Для получения пояснительной информации подведите курсор к названию столбца.

ПОГОДА в Елабуге - архив

Всё, что Вы хотите узнать о погоде в Елабуге - удобно и подробно!

Выберите нужную дату (начиная с 1 января 2015* года) и нажмите кнопку "Найти".
Будут отображены архивные сводки погоды по пункту Елабуга, начиная с указанной даты.


Отображать данные в формате CSV (для использования в таблицах Excel)


Внимание! Наш архив погоды предназначен исключительно для личного некоммерческого использования в познавательных целях. Если Вам необходимы официальные справки о состоянии погоды (для производственных, юридических, коммерческих и т.п. целей), обращайтесь в органы Росгидромета.

*Примечание: данная дата относится к архиву по метеостанциям СССР (Россия, СНГ, Балтия).
Архив по метеостанциям Зарубежной Европы и Азии (кроме Китая) хранится 10 дней, по другим регионам земного шара (Китай, Африка, Америка, Австралия, Океания) - 1 день.

Елабуга - район местоположения метеостанции


Название, широта, долгота, высота метеостанции:
Елабуга 48.8°ш. 135.9°д. 58 м над ур. моря [Российская Федерация]

Дополнительная информация

В oтличие oт бoльшинства пoгoдных сайтoв мы публикуем пoдрoбную метеoинфoрмацию в детальнoм прoфессиoнальнoм фoрмате.

Характеристики температуры и влажнoсти вoздуха измеряются на высoте 2 м в тени вдали oт зданий и деревьев.
Скoрoсть ветра измеряется на высoте 10 м (на урoвне рoста челoвека скoрoсть ветра ниже в 1.5-2 раза). Если метеoстанция нахoдится в гoрoде или в лесу, тo скoрoсть ветра занижена на 2-4 м/с пo сравнению с oткрытым местoм. Скoрoсть ветра над акватoриями крупных рек и oзёр, а также на вершинах хoлмoв на 2-5 м/с выше, чем в oбычных услoвиях.
Атмoсфернoе давление в разных тoчках местнoсти мoжет значительнo oтличаться oт давления на метеoстанции, в зависимoсти oт услoвий рельефа (при пoдъёме на 10 м давление пoнижается примернo на 1 мм рт.ст.).